Regional Weather Roundup
Issued by NWS

Home | Current Version | Previous Version | Graphics & Text | Print | Product List | Glossary On
Versions: 1 2 3 4 5 6 7 8 9 10 11 12 13 14 15 16 17 18 19 20 21 22 23 24 25 26 27 28 29 30 31 32 33 34 35 36 37 38 39 40 41 42 43 44 45 46 47 48 49 50
000
ASUS43 KTOP 030659
RWRKS

WEATHER ROUNDUP FOR KANSAS
NATIONAL WEATHER SERVICE GOODLAND KS
200 AM CDT WED SEP 03 2014

NOTE:  "FAIR" INDICATES FEW OR NO CLOUDS BELOW 12,000 FEET WITH NO
SIGNIFICANT WEATHER AND/OR OBSTRUCTIONS TO VISIBILITY.

KSZ001>006-013>018-027>032-041>047-030800-
NORTHWEST KANSAS

CITY           SKY/WX    TMP DP  RH WIND       PRES   REMARKS
GOODLAND       PTCLDY    67  64  90 S9        29.94F
HAYS           CLOUDY    73  68  83 SE15      29.91S
HILL CITY      CLEAR     70  67  90 SE5       29.90S
RUSSELL        MOCLDY    73  68  84 SE15      29.90F
$$

KSZ061>065-074>080-084>089-030800-
SOUTHWEST KANSAS

CITY           SKY/WX    TMP DP  RH WIND       PRES   REMARKS
DODGE CITY     CLEAR     70  68  93 E9        29.91F FOG
ELKHART          N/A     70  65  84 S10         N/A
GARDEN CITY    CLEAR     70  68  93 SE10      29.90F
GREAT BEND     MOCLDY    73  68  83 SE8       29.92R
LIBERAL        CLEAR     72  66  83 SE7       29.92F
$$

KSZ066>073-081>083-090>101-030800-
SOUTHEAST KANSAS

CITY           SKY/WX    TMP DP  RH WIND       PRES   REMARKS
CHANUTE        CLOUDY    73  69  87 S9        29.95F
COFFEYVILLE    PTCLDY    72  67  84 SE5       29.95S
HUTCHINSON     MOCLDY    73  69  87 SE12      29.91F
NEWTON         CLOUDY    72  66  83 SE10      29.97S
PARSONS        MOCLDY    73  69  87 SE6       29.96F
WICHITA INTL   MOCLDY    74  68  81 SE13      29.94R
WICHITA JABRA  CLOUDY    72  68  87 SE10      29.94R
WINFIELD       PTCLDY    71  68  90 SE12      29.93F
$$

KSZ007>012-019>026-033>040-048>060-102>105-030800-
NORTHEAST KANSAS

CITY           SKY/WX    TMP DP  RH WIND       PRES   REMARKS
CONCORDIA      MOCLDY    72  68  87 S12       29.91F
EMPORIA        LGT RAIN  71  69  93 SE9       29.95F
LAWRENCE       PTCLDY    68  66  93 SE6       29.96S
MANHATTAN      MOCLDY    72  69  90 SW3       29.93F
OLATHE IND     CLEAR     69  68  96 SE9       29.97F
OLATHE EXE     CLEAR     69  68  96 SE7       29.96F
SALINA         CLOUDY    73  69  87 SE5       29.91F
TOPEKA BILLARD PTCLDY    72  69  90 SE6       29.95S
TOPEKA FORBES  PTCLDY    72  68  87 SE8       29.95F
$$



USA.gov is the U.S. government's official web portal to all federal, state and local government web resources and services.